Hourly Weather Uchkoprik

Today, 17 April, Saturday

Time Temperature Precipitation Wind Pressure Humidity
00:00 +20°C° 0 mm 2 mps 725 mmHg 30%
01:00 +20°C° 0 mm 2 mps 724 mmHg 32%
02:00 +19°C° 0 mm 2 mps 724 mmHg 33%
03:00 +19°C° 0 mm 2 mps 724 mmHg 35%
04:00 +19°C° 0 mm 1 mps 725 mmHg 37%
05:00 +18°C° 0 mm 1 mps 725 mmHg 39%
06:00 +18°C° 0 mm 2 mps 725 mmHg 37%
07:00 +20°C° 0 mm 2 mps 726 mmHg 35%
08:00 +21°C° 0 mm 2 mps 726 mmHg 33%
09:00 +23°C° 0 mm 2 mps 726 mmHg 29%
10:00 +25°C° 0 mm 2 mps 726 mmHg 26%
11:00 +26°C° 0 mm 2 mps 726 mmHg 22%
12:00 +27°C° 0 mm 2 mps 726 mmHg 20%
13:00 +28°C° 0 mm 3 mps 725 mmHg 18%
14:00 +29°C° 0 mm 3 mps 725 mmHg 16%
15:00 +29°C° 0 mm 3 mps 725 mmHg 15%
16:00 +29°C° 0 mm 3 mps 724 mmHg 14%
17:00 +29°C° 0 mm 4 mps 724 mmHg 13%
18:00 +28°C° 0 mm 4 mps 724 mmHg 16%
19:00 +27°C° 0 mm 5 mps 724 mmHg 18%
20:00 +26°C° 0 mm 6 mps 724 mmHg 20%
21:00 +24°C° 0 mm 6 mps 724 mmHg 23%
22:00 +23°C° 0 mm 6 mps 724 mmHg 25%
23:00 +23°C° 0 mm 7 mps 724 mmHg 28%

Tomorrow, 18 April, Sunday

Time Temperature Precipitation Wind Pressure Humidity
00:00 +22°C° 0 mm 7 mps 724 mmHg 28%
01:00 +22°C° 0 mm 7 mps 724 mmHg 29%
02:00 +21°C° 0 mm 7 mps 724 mmHg 30%
03:00 +21°C° 0 mm 7 mps 724 mmHg 30%
04:00 +21°C° 0 mm 7 mps 724 mmHg 30%
05:00 +21°C° 0 mm 7 mps 725 mmHg 30%
06:00 +21°C° 0 mm 7 mps 725 mmHg 29%
07:00 +21°C° 0 mm 7 mps 726 mmHg 29%
08:00 +22°C° 0 mm 7 mps 726 mmHg 28%
09:00 +22°C° 0 mm 7 mps 727 mmHg 26%
10:00 +23°C° 0 mm 7 mps 727 mmHg 25%
11:00 +24°C° 0 mm 7 mps 727 mmHg 23%
12:00 +24°C° 0 mm 8 mps 727 mmHg 22%
13:00 +26°C° 0 mm 9 mps 727 mmHg 21%
14:00 +26°C° 0 mm 9 mps 727 mmHg 21%
15:00 +26°C° 0 mm 9 mps 727 mmHg 20%
16:00 +26°C° 0 mm 8 mps 726 mmHg 20%
17:00 +26°C° 0 mm 7 mps 726 mmHg 20%
18:00 +24°C° 0 mm 7 mps 727 mmHg 21%
19:00 +23°C° 0 mm 6 mps 727 mmHg 23%
20:00 +22°C° 0 mm 5 mps 727 mmHg 25%
21:00 +21°C° 0 mm 5 mps 727 mmHg 27%
22:00 +20°C° 0 mm 4 mps 727 mmHg 29%
23:00 +20°C° 0 mm 4 mps 727 mmHg 31%

Day after tomorrow, 19 April, Monday

Time Temperature Precipitation Wind Pressure Humidity
00:00 +19°C° 0 mm 3 mps 727 mmHg 35%
01:00 +18°C° 0 mm 3 mps 727 mmHg 38%
02:00 +17°C° 0 mm 2 mps 727 mmHg 42%
03:00 +17°C° 0 mm 2 mps 727 mmHg 45%
04:00 +16°C° 0 mm 1 mps 727 mmHg 47%
05:00 +15°C° 0 mm 1 mps 727 mmHg 50%
06:00 +16°C° 0 mm 1 mps 727 mmHg 46%
07:00 +17°C° 0 mm 2 mps 727 mmHg 43%
08:00 +18°C° 0 mm 2 mps 727 mmHg 40%
09:00 +20°C° 0 mm 2 mps 727 mmHg 36%
10:00 +23°C° 0 mm 2 mps 727 mmHg 31%
11:00 +24°C° 0 mm 3 mps 726 mmHg 26%
12:00 +25°C° 0 mm 2 mps 726 mmHg 24%
13:00 +26°C° 0 mm 2 mps 725 mmHg 21%
14:00 +26°C° 0 mm 1 mps 725 mmHg 18%
15:00 +27°C° 0 mm 1 mps 724 mmHg 17%
16:00 +27°C° 0 mm 1 mps 724 mmHg 16%
17:00 +27°C° 0 mm 1 mps 724 mmHg 15%
18:00 +26°C° 0 mm 1 mps 723 mmHg 16%
19:00 +25°C° 0 mm 1 mps 723 mmHg 18%
20:00 +24°C° 0 mm 1 mps 723 mmHg 19%
21:00 +23°C° 0 mm 1 mps 723 mmHg 20%
22:00 +23°C° 0 mm 1 mps 723 mmHg 21%
23:00 +22°C° 0 mm 1 mps 723 mmHg 23%

20 April, Tuesday

Time Temperature Precipitation Wind Pressure Humidity
00:00 +21°C° 0 mm 2 mps 723 mmHg 24%
01:00 +20°C° 0 mm 2 mps 722 mmHg 26%
02:00 +19°C° 0 mm 2 mps 722 mmHg 27%
03:00 +19°C° 0 mm 2 mps 722 mmHg 29%
04:00 +18°C° 0 mm 2 mps 722 mmHg 30%
05:00 +18°C° 0 mm 2 mps 722 mmHg 31%
06:00 +20°C° 0 mm 1 mps 722 mmHg 30%
07:00 +21°C° 0 mm 1 mps 722 mmHg 29%
08:00 +22°C° 0 mm 1 mps 723 mmHg 27%
09:00 +23°C° 0 mm 1 mps 722 mmHg 25%
10:00 +25°C° 0 mm 2 mps 722 mmHg 22%
11:00 +26°C° 0 mm 2 mps 722 mmHg 19%
12:00 +27°C° 0 mm 2 mps 721 mmHg 18%
13:00 +28°C° 0 mm 2 mps 721 mmHg 16%
14:00 +28°C° 0 mm 2 mps 720 mmHg 15%
15:00 +29°C° 0 mm 3 mps 720 mmHg 15%
16:00 +29°C° 0 mm 4 mps 720 mmHg 16%
17:00 +29°C° 0 mm 5 mps 719 mmHg 16%
18:00 +28°C° 0 mm 6 mps 719 mmHg 18%
19:00 +26°C° 0 mm 7 mps 719 mmHg 20%
20:00 +24°C° 0 mm 9 mps 719 mmHg 22%
21:00 +23°C° 0 mm 9 mps 719 mmHg 27%
22:00 +22°C° 0 mm 10 mps 719 mmHg 32%
23:00 +21°C° 0 mm 10 mps 719 mmHg 37%

21 April, Wednesday

Time Temperature Precipitation Wind Pressure Humidity
00:00 +19°C° 0 mm 10 mps 719 mmHg 38%
01:00 +19°C° 0 mm 10 mps 719 mmHg 39%
02:00 +19°C° 0 mm 10 mps 719 mmHg 40%
03:00 +18°C° 0 mm 9 mps 719 mmHg 43%
04:00 +17°C° 0 mm 8 mps 720 mmHg 47%
05:00 +16°C° 0 mm 7 mps 720 mmHg 50%
06:00 +16°C° 0.1 mm 7 mps 721 mmHg 53%
07:00 +16°C° 0.1 mm 7 mps 721 mmHg 56%
08:00 +16°C° 0.1 mm 7 mps 722 mmHg 58%
09:00 +15°C° 0.2 mm 8 mps 722 mmHg 58%
10:00 +15°C° 0.2 mm 8 mps 722 mmHg 57%
11:00 +15°C° 0.2 mm 9 mps 723 mmHg 57%
12:00 +16°C° 0 mm 9 mps 723 mmHg 53%
13:00 +17°C° 0 mm 10 mps 723 mmHg 50%
14:00 +17°C° 0 mm 10 mps 723 mmHg 46%
15:00 +18°C° 0 mm 10 mps 723 mmHg 43%
16:00 +19°C° 0 mm 9 mps 723 mmHg 41%
17:00 +19°C° 0 mm 9 mps 723 mmHg 38%
18:00 +18°C° 0 mm 8 mps 724 mmHg 41%
19:00 +18°C° 0 mm 7 mps 724 mmHg 44%
20:00 +17°C° 0 mm 6 mps 725 mmHg 48%
21:00 +16°C° 0 mm 5 mps 725 mmHg 52%
22:00 +15°C° 0 mm 5 mps 725 mmHg 56%
23:00 +15°C° 0 mm 5 mps 726 mmHg 60%

22 April, Thursday

Time Temperature Precipitation Wind Pressure Humidity
00:00 +15°C° 0 mm 4 mps 726 mmHg 60%
01:00 +16°C° 0 mm 3 mps 726 mmHg 60%
02:00 +15°C° 0 mm 2 mps 726 mmHg 60%
03:00 +14°C° 0 mm 3 mps 726 mmHg 62%
04:00 +14°C° 0 mm 3 mps 726 mmHg 64%
05:00 +13°C° 0 mm 4 mps 727 mmHg 67%
06:00 +14°C° 0 mm 4 mps 727 mmHg 65%
07:00 +14°C° 0 mm 5 mps 728 mmHg 63%
08:00 +14°C° 0 mm 5 mps 728 mmHg 61%
09:00 +15°C° 0 mm 5 mps 728 mmHg 56%
10:00 +16°C° 0 mm 5 mps 729 mmHg 50%
11:00 +17°C° 0 mm 5 mps 729 mmHg 44%
12:00 +19°C° 0 mm 4 mps 728 mmHg 40%
13:00 +19°C° 0 mm 4 mps 728 mmHg 36%
14:00 +20°C° 0 mm 4 mps 728 mmHg 32%
15:00 +21°C° 0 mm 4 mps 728 mmHg 31%
16:00 +21°C° 0 mm 4 mps 728 mmHg 29%
17:00 +22°C° 0 mm 4 mps 728 mmHg 28%
18:00 +21°C° 0 mm 3 mps 728 mmHg 31%
19:00 +20°C° 0 mm 3 mps 728 mmHg 34%
20:00 +18°C° 0 mm 3 mps 728 mmHg 38%
21:00 +18°C° 0 mm 3 mps 728 mmHg 40%
22:00 +17°C° 0 mm 3 mps 728 mmHg 43%
23:00 +17°C° 0 mm 3 mps 728 mmHg 45%
Show more